If you wish to contribute or participate in the discussions about articles you are invited to join SKYbrary as a registered user

 Actions

Liège

From SKYbrary Wiki

EBLG /
Revision as of 15:04, 28 March 2013 by Editor1 (talk | contribs) (Forum)
(diff) ← Older revision | Latest revision (diff) | Newer revision → (diff)
Airport
ICAO: EBLG
Summary
Name Liège
Region Europe
Territory Belgium BE.gif
Location Liège
Serving
Coordinates 50° 38' 38.94" N, 5° 27' 17.02" E
Runways
Designator Length Width Surface ROPS
05L/23R 2340 m7,677.165 ft
45 m147.638 ft
ASP yes/yes
05R/23L 3287 m10,784.121 ft
45 m147.638 ft
ASP yes/yes


METAR
Observation EBLG 161050Z 23008KT 200V260 CAVOK 20/09 Q1020 NOSIG
Station Bierset
Date/Time 16 September 2019 10:50:00
Wind direction 230°
Wind speed 08 kts
Lowest cloud amount clouds and visibility OK
Temperature 20°C
Dew point 9°C
Humidity 49%
QNH 1020 hPa
Weather condition n/a


Liège Airport

ICAO: EBLG IATA: LGG

Description

Liège Airport, also called Liège-Bierset, is a cargo airport in Belgium.

Climatology

Temperate Marine climate/Oceanic climate (Köppen climate classification Cfb) - Moderately cool summer and comparatively warm winter.

Maps

Terrain

Loading map...

Airport Layout

Loading map...




Accidents & Serious Incidents at or in vicinity of EBLG

None on SKYbrary